This is the latest recevied weather packets stored in our database for station/object DO7ZT-10. If no packets are shown the sender has not sent any weather packets the latest 1 day(s).
| Time | Temp. | Humidity | Pressure | Rain* | Wind** | Luminosity | Snow |
|---|---|---|---|---|---|---|---|
| 1778415157 | 21.67° C | 43% | 1013.1 hPa | - | - | - | - |
| 1778414257 | 21.67° C | 42% | 1013.3 hPa | - | - | - | - |
| 1778413357 | 21.11° C | 44% | 1013.4 hPa | - | - | - | - |
| 1778412457 | 20.56° C | 49% | 1013.7 hPa | - | - | - | - |
| 1778411557 | 20.56° C | 51% | 1013.8 hPa | - | - | - | - |
| 1778410657 | 20.56° C | 50% | 1014 hPa | - | - | - | - |
| 1778409757 | 20° C | 54% | 1014.2 hPa | - | - | - | - |
| 1778408857 | 20° C | 52% | 1014.4 hPa | - | - | - | - |
| 1778407956 | 19.44° C | 58% | 1014.4 hPa | - | - | - | - |
| 1778407056 | 18.89° C | 54% | 1014.5 hPa | - | - | - | - |
| 1778406156 | 18.33° C | 55% | 1014.7 hPa | - | - | - | - |
| 1778405256 | 18.89° C | 60% | 1014.9 hPa | - | - | - | - |
| 1778404356 | 17.78° C | 64% | 1015 hPa | - | - | - | - |
| 1778403456 | 17.22° C | 66% | 1015.3 hPa | - | - | - | - |
| 1778402556 | 17.22° C | 66% | 1015.3 hPa | - | - | - | - |
| 1778401656 | 16.11° C | 69% | 1015.6 hPa | - | - | - | - |
| 1778400756 | 15.56° C | 69% | 1015.6 hPa | - | - | - | - |
| 1778399856 | 15.56° C | 72% | 1015.7 hPa | - | - | - | - |
| 1778398956 | 15° C | 80% | 1015.8 hPa | - | - | - | - |
| 1778398056 | 14.44° C | 83% | 1015.9 hPa | - | - | - | - |
| 1778397156 | 13.89° C | 80% | 1016.1 hPa | - | - | - | - |
| 1778396256 | 13.33° C | 89% | 1016.1 hPa | - | - | - | - |
| 1778395356 | 12.78° C | 86% | 1016.2 hPa | - | - | - | - |
| 1778394455 | 12.78° C | 89% | 1016.4 hPa | - | - | - | - |
| 1778393555 | 12.22° C | 94% | 1016.4 hPa | - | - | - | - |
* Rain since midnight (hover to see other rain measurements)
** Current wind speed in m/s (hover to see current wind gust speed)